| time (UTC) | temp F | wind direction | speed knots | gust knots | rain 1hr in | rain 24hr in | rain mn in | humidity % | barometer mb |
| 20260504231539 | 71 | 186 | 0.0 | 6.1 | 0.00 | 0.00 | 0.00 | 35 | 1003.2 |
| 20260504231040 | 71 | 245 | 0.0 | 7.8 | 0.00 | 0.00 | 0.00 | 35 | 1003.3 |
| 20260504230542 | 71 | 259 | 2.6 | 7.8 | 0.00 | 0.00 | 0.00 | 35 | 1003.3 |
| 20260504230055 | 71 | 196 | 0.0 | 4.3 | 0.00 | 0.00 | 0.00 | 36 | 1003.3 |
| 20260504225543 | 70 | 240 | 0.0 | 2.6 | 0.00 | 0.00 | 0.00 | 36 | 1003.3 |
| 20260504225041 | 70 | 238 | 0.0 | 7.0 | 0.00 | 0.00 | 0.00 | 36 | 1003.3 |
| 20260504224556 | 70 | 252 | 0.9 | 7.0 | 0.00 | 0.00 | 0.00 | 36 | 1003.4 |
| 20260504224038 | 71 | 250 | 1.7 | 7.0 | 0.00 | 0.00 | 0.00 | 36 | 1003.4 |
| 20260504223539 | 71 | 265 | 0.9 | 8.7 | 0.00 | 0.00 | 0.00 | 36 | 1003.5 |
| 20260504223037 | 71 | 221 | 0.9 | 7.0 | 0.00 | 0.00 | 0.00 | 37 | 1003.5 |
| 20260504222538 | 71 | 242 | 2.6 | 12.2 | 0.00 | 0.00 | 0.00 | 36 | 1003.5 |
| 20260504222036 | 70 | 217 | 1.7 | 12.2 | 0.00 | 0.00 | 0.00 | 36 | 1003.5 |
| 20260504221538 | 71 | 230 | 3.5 | 10.4 | 0.00 | 0.00 | 0.00 | 36 | 1003.5 |
| 20260504221036 | 70 | 219 | 1.7 | 12.2 | 0.00 | 0.00 | 0.00 | 37 | 1003.5 |
| 20260504220536 | 70 | 259 | 5.2 | 12.2 | 0.00 | 0.00 | 0.00 | 36 | 1003.5 |
| 20260504220038 | 70 | 262 | 4.3 | 12.2 | 0.00 | 0.00 | 0.00 | 36 | 1003.5 |
| 20260504215535 | 70 | 197 | 3.5 | 13.0 | 0.00 | 0.00 | 0.00 | 37 | 1003.6 |
| 20260504215035 | 70 | 268 | 6.1 | 13.0 | 0.00 | 0.00 | 0.00 | 36 | 1003.6 |
| 20260504214542 | 70 | 274 | 5.2 | 12.2 | 0.00 | 0.00 | 0.00 | 36 | 1003.6 |
| 20260504214036 | 71 | 240 | 4.3 | 14.8 | 0.00 | 0.00 | 0.00 | 36 | 1003.6 |
| 20260504213535 | 71 | 237 | 7.0 | 11.3 | 0.00 | 0.00 | 0.00 | 37 | 1003.6 |
| 20260504213034 | 71 | 189 | 0.0 | 13.0 | 0.00 | 0.00 | 0.00 | 39 | 1003.6 |
| 20260504212532 | 70 | 258 | 5.2 | 13.0 | 0.00 | 0.00 | 0.00 | 39 | 1003.6 |
| 20260504212029 | 70 | 230 | 3.5 | 8.7 | 0.00 | 0.00 | 0.00 | 40 | 1003.7 |
| 20260504211530 | 70 | 160 | 2.6 | 11.3 | 0.00 | 0.00 | 0.00 | 39 | 1003.7 |
| 20260504211028 | 70 | 264 | 2.6 | 12.2 | 0.00 | 0.00 | 0.00 | 39 | 1003.6 |
| 20260504210530 | 70 | 228 | 2.6 | 12.2 | 0.00 | 0.00 | 0.00 | 39 | 1003.7 |
| 20260504210026 | 70 | 158 | 2.6 | 7.8 | 0.00 | 0.00 | 0.00 | 40 | 1003.8 |
| 20260504205525 | 70 | 186 | 0.0 | 9.6 | 0.00 | 0.00 | 0.00 | 41 | 1003.8 |
| 20260504205029 | 70 | 248 | 1.7 | 9.6 | 0.00 | 0.00 | 0.00 | 41 | 1003.8 |
| 20260504204523 | 70 | 208 | 1.7 | 12.2 | 0.00 | 0.00 | 0.00 | 41 | 1003.9 |
| 20260504204021 | 69 | 233 | 6.1 | 12.2 | 0.00 | 0.00 | 0.00 | 40 | 1004.0 |
| 20260504203520 | 70 | 228 | 6.1 | 16.5 | 0.00 | 0.00 | 0.00 | 40 | 1004.1 |
| 20260504203020 | 69 | 268 | 6.1 | 16.5 | 0.00 | 0.00 | 0.00 | 40 | 1004.2 |
| 20260504202519 | 69 | 257 | 3.5 | 13.0 | 0.00 | 0.00 | 0.00 | 42 | 1004.2 |
| 20260504202015 | 68 | 242 | 4.3 | 15.6 | 0.00 | 0.00 | 0.00 | 42 | 1004.3 |
| 20260504201515 | 68 | 255 | 7.8 | 15.6 | 0.00 | 0.00 | 0.00 | 42 | 1004.4 |
| 20260504201014 | 69 | 251 | 2.6 | 13.9 | 0.00 | 0.00 | 0.00 | 43 | 1004.4 |
| 20260504200513 | 69 | 237 | 3.5 | 13.9 | 0.00 | 0.00 | 0.00 | 43 | 1004.4 |
| 20260504200017 | 69 | 312 | 4.3 | 13.0 | 0.00 | 0.00 | 0.00 | 43 | 1004.5 |
| 20260504195511 | 69 | 292 | 6.1 | 13.0 | 0.00 | 0.00 | 0.00 | 42 | 1004.5 |
| 20260504195010 | 69 | 251 | 3.5 | 13.0 | 0.00 | 0.00 | 0.00 | 43 | 1004.7 |
| 20260504194511 | 68 | 231 | 4.3 | 15.6 | 0.00 | 0.00 | 0.00 | 42 | 1004.8 |
| 20260504194009 | 68 | 274 | 7.8 | 15.6 | 0.00 | 0.00 | 0.00 | 43 | 1005.0 |
| 20260504193511 | 68 | 272 | 1.7 | 23.5 | 0.00 | 0.00 | 0.00 | 45 | 1005.1 |
| 20260504193007 | 68 | 235 | 7.0 | 23.5 | 0.00 | 0.00 | 0.00 | 44 | 1005.1 |
| 20260504192505 | 67 | 242 | 3.5 | 13.9 | 0.00 | 0.00 | 0.00 | 45 | 1005.1 |
| 20260504192007 | 67 | 258 | 4.3 | 16.5 | 0.00 | 0.00 | 0.00 | 45 | 1005.1 |
| 20260504191503 | 67 | 259 | 9.6 | 16.5 | 0.00 | 0.00 | 0.00 | 45 | 1005.3 |
| 20260504191002 | 67 | 278 | 5.2 | 16.5 | 0.00 | 0.00 | 0.00 | 45 | 1005.2 |
| 20260504190503 | 67 | 252 | 9.6 | 20.9 | 0.00 | 0.00 | 0.00 | 44 | 1005.3 |
| 20260504190101 | 67 | 245 | 10.4 | 20.9 | 0.00 | 0.00 | 0.00 | 45 | 1005.4 |
| 20260504185559 | 67 | 254 | 9.6 | 15.6 | 0.00 | 0.00 | 0.00 | 47 | 1005.5 |
| 20260504185501 | 67 | 278 | 9.6 | 14.8 | 0.00 | 0.00 | 0.00 | 46 | 1005.4 |
| 20260504185059 | 67 | 266 | 7.8 | 14.8 | 0.00 | 0.00 | 0.00 | 46 | 1005.5 |
| 20260504184600 | 67 | 245 | 5.2 | 13.0 | 0.00 | 0.00 | 0.00 | 48 | 1005.5 |
| 20260504184057 | 67 | 261 | 3.5 | 16.5 | 0.00 | 0.00 | 0.00 | 47 | 1005.6 |
| 20260504183556 | 67 | 269 | 6.1 | 18.2 | 0.00 | 0.00 | 0.00 | 48 | 1005.7 |
| 20260504183055 | 67 | 241 | 2.6 | 16.5 | 0.00 | 0.00 | 0.00 | 48 | 1005.6 |
| 20260504182556 | 66 | 287 | 8.7 | 16.5 | 0.00 | 0.00 | 0.00 | 46 | 1005.7 |
| 20260504182052 | 67 | 259 | 7.8 | 20.0 | 0.00 | 0.00 | 0.00 | 47 | 1005.6 |
| 20260504181553 | 66 | 278 | 8.7 | 20.0 | 0.00 | 0.00 | 0.00 | 47 | 1005.7 |
| 20260504181051 | 66 | 244 | 8.7 | 18.2 | 0.00 | 0.00 | 0.00 | 48 | 1005.8 |
| 20260504180549 | 66 | 244 | 8.7 | 21.7 | 0.00 | 0.00 | 0.00 | 48 | 1005.6 |
| 20260504180149 | 66 | 238 | 13.0 | 21.7 | 0.00 | 0.00 | 0.00 | 47 | 1005.9 |
| 20260504175548 | 65 | 302 | 7.0 | 16.5 | 0.00 | 0.00 | 0.00 | 49 | 1005.8 |
| 20260504175048 | 65 | 280 | 8.7 | 18.2 | 0.00 | 0.00 | 0.00 | 48 | 1005.9 |
| 20260504174553 | 65 | 241 | 8.7 | 17.4 | 0.00 | 0.00 | 0.00 | 49 | 1005.9 |
| 20260504174047 | 65 | 240 | 9.6 | 17.4 | 0.00 | 0.00 | 0.00 | 49 | 1006.0 |
| 20260504173547 | 66 | 268 | 7.8 | 14.8 | 0.00 | 0.00 | 0.00 | 48 | 1005.8 |
| 20260504173045 | 66 | 237 | 7.0 | 15.6 | 0.00 | 0.00 | 0.00 | 49 | 1005.9 |
| 20260504172548 | 65 | 278 | 8.7 | 18.2 | 0.00 | 0.00 | 0.00 | 49 | 1005.9 |
| 20260504172043 | 65 | 261 | 8.7 | 18.2 | 0.00 | 0.00 | 0.00 | 49 | 1005.9 |
| 20260504171541 | 65 | 235 | 8.7 | 13.0 | 0.00 | 0.00 | 0.00 | 50 | 1006.0 |
| 20260504171040 | 64 | 261 | 4.3 | 13.9 | 0.00 | 0.00 | 0.00 | 50 | 1006.0 |
| 20260504170539 | 64 | 266 | 3.5 | 11.3 | 0.00 | 0.00 | 0.00 | 50 | 1005.9 |
| 20260504151021 | 60 | 259 | 1.7 | 14.8 | 0.00 | 0.00 | 0.00 | 54 | 1007.3 |
| 20260504150517 | 59 | 286 | 5.2 | 13.9 | 0.00 | 0.00 | 0.00 | 53 | 1007.3 |
| 20260504141013 | 55 | 207 | 2.6 | 10.4 | 0.00 | 0.00 | 0.00 | 56 | 1007.7 |
| 20260504140507 | 55 | 175 | 1.7 | 8.7 | 0.00 | 0.00 | 0.00 | 55 | 1007.6 |
| 20260504130556 | 53 | 251 | 2.6 | 13.0 | 0.00 | 0.00 | 0.00 | 56 | 1008.0 |
| 20260504120117 | 51 | 212 | 2.6 | 13.0 | 0.00 | 0.00 | 0.00 | 57 | 1008.2 |
| 20260504110545 | 49 | 165 | 0.0 | 6.1 | 0.00 | 0.00 | 0.00 | 58 | 1008.2 |
| 20260504100540 | 49 | 238 | 0.0 | 3.5 | 0.00 | 0.00 | 0.00 | 59 | 1008.3 |
| 20260504081530 | 50 | 248 | 0.0 | 9.6 | 0.00 | 0.00 | 0.00 | 56 | 1008.5 |
| 20260504081027 | 50 | 255 | 1.7 | 7.8 | 0.00 | 0.00 | 0.00 | 55 | 1008.6 |
| 20260504080527 | 50 | 252 | 0.0 | 7.8 | 0.00 | 0.00 | 0.00 | 55 | 1008.7 |
| 20260504050511 | 52 | 266 | 0.0 | 1.7 | 0.00 | 0.00 | 0.00 | 54 | 1009.1 |
| 20260504050010 | 52 | 176 | 0.0 | 1.7 | 0.00 | 0.00 | 0.00 | 54 | 1009.2 |
| 20260504045509 | 52 | 248 | 0.0 | 1.7 | 0.00 | 0.00 | 0.00 | 55 | 1009.2 |
| 20260504045014 | 51 | 264 | 0.0 | 0.9 | 0.00 | 0.00 | 0.00 | 56 | 1009.2 |
| 20260504044511 | 51 | 242 | 0.0 | 0.9 | 0.00 | 0.00 | 0.00 | 56 | 1009.2 |
| 20260504044007 | 51 | 257 | 0.0 | 0.9 | 0.00 | 0.00 | 0.00 | 57 | 1009.3 |
| 20260504043507 | 51 | 257 | 0.0 | 0.9 | 0.00 | 0.00 | 0.00 | 57 | 1009.2 |
| 20260504043010 | 51 | 247 | 0.0 | 0.0 | 0.00 | 0.00 | 0.00 | 58 | 1009.3 |
| 20260504042506 | 51 | 262 | 0.0 | 0.9 | 0.00 | 0.00 | 0.00 | 58 | 1009.3 |
| 20260504042004 | 51 | 247 | 0.0 | 0.9 | 0.00 | 0.00 | 0.00 | 59 | 1009.3 |
| 20260504041504 | 50 | 247 | 0.0 | 0.0 | 0.00 | 0.00 | 0.00 | 60 | 1009.3 |
| 20260504041003 | 50 | 264 | 0.0 | 0.0 | 0.00 | 0.00 | 0.00 | 61 | 1009.4 |
| 20260504040502 | 50 | 253 | 0.0 | 0.0 | 0.00 | 0.00 | 0.00 | 61 | 1009.4 |
| 20260504040001 | 50 | 251 | 0.0 | 0.0 | 0.00 | 0.00 | 0.00 | 62 | 1009.6 |
| 20260504035502 | 50 | 240 | 0.0 | 0.0 | 0.00 | 0.00 | 0.00 | 62 | 1009.6 |
| 20260504035100 | 50 | 227 | 0.0 | 0.0 | 0.00 | 0.00 | 0.00 | 63 | 1009.6 |
| 20260504034600 | 49 | 217 | 0.0 | 0.0 | 0.00 | 0.00 | 0.00 | 64 | 1009.6 |
| 20260504034501 | 49 | 238 | 0.0 | 0.0 | 0.00 | 0.00 | 0.00 | 64 | 1009.7 |
| 20260504034100 | 49 | 169 | 0.0 | 0.9 | 0.00 | 0.00 | 0.00 | 64 | 1009.7 |
| 20260504033600 | 49 | 264 | 0.0 | 0.9 | 0.00 | 0.00 | 0.00 | 65 | 1009.8 |
| 20260504033123 | 49 | 234 | 0.0 | 0.0 | 0.00 | 0.00 | 0.00 | 66 | 1009.7 |
| 20260504032600 | 49 | 227 | 0.0 | 0.0 | 0.00 | 0.00 | 0.00 | 66 | 1009.7 |
| 20260504032059 | 49 | 223 | 0.0 | 0.0 | 0.00 | 0.00 | 0.00 | 67 | 1009.7 |
| 20260504031600 | 48 | 152 | 0.0 | 0.0 | 0.00 | 0.00 | 0.00 | 68 | 1009.8 |
| 20260504031058 | 48 | 172 | 0.0 | 0.0 | 0.00 | 0.00 | 0.00 | 69 | 1009.8 |
| 20260504030600 | 48 | 159 | 0.0 | 0.9 | 0.00 | 0.00 | 0.00 | 70 | 1009.9 |
| 20260504030117 | 48 | 214 | 0.0 | 0.9 | 0.00 | 0.00 | 0.00 | 70 | 1009.9 |
| 20260504025558 | 48 | 167 | 0.0 | 0.9 | 0.00 | 0.00 | 0.00 | 70 | 1010.0 |
| 20260504025057 | 48 | 240 | 0.0 | 0.0 | 0.00 | 0.00 | 0.00 | 71 | 1010.0 |
| 20260504024559 | 48 | 249 | 0.0 | 0.0 | 0.00 | 0.00 | 0.00 | 71 | 1010.1 |
| 20260504024057 | 48 | 266 | 0.0 | 0.0 | 0.00 | 0.00 | 0.00 | 71 | 1010.3 |
| 20260504023558 | 48 | 231 | 0.0 | 7.8 | 0.00 | 0.00 | 0.00 | 71 | 1010.4 |
| 20260504023057 | 48 | 258 | 0.0 | 7.8 | 0.00 | 0.00 | 0.00 | 72 | 1010.4 |
| 20260504022601 | 48 | 226 | 0.0 | 0.9 | 0.00 | 0.00 | 0.00 | 74 | 1010.5 |
| 20260504022100 | 48 | 318 | 0.0 | 0.9 | 0.00 | 0.00 | 0.00 | 73 | 1010.5 |
| 20260504021557 | 48 | 292 | 0.0 | 7.0 | 0.00 | 0.00 | 0.00 | 73 | 1010.5 |
| 20260504021056 | 49 | 283 | 0.9 | 9.6 | 0.00 | 0.00 | 0.00 | 72 | 1010.7 |
| 20260504020559 | 49 | 300 | 3.5 | 12.2 | 0.00 | 0.00 | 0.00 | 69 | 1010.9 |
| 20260504020106 | 50 | 291 | 2.6 | 15.6 | 0.00 | 0.00 | 0.00 | 65 | 1010.9 |
| 20260504015556 | 51 | 290 | 2.6 | 17.4 | 0.00 | 0.00 | 0.00 | 62 | 1010.9 |
| 20260504015055 | 51 | 268 | 7.0 | 17.4 | 0.00 | 0.00 | 0.00 | 61 | 1010.8 |
| 20260504014604 | 51 | 300 | 0.0 | 7.8 | 0.00 | 0.00 | 0.00 | 60 | 1010.6 |
| 20260504014054 | 51 | 309 | 0.9 | 7.8 | 0.00 | 0.00 | 0.00 | 58 | 1010.6 |
| 20260504013554 | 51 | 302 | 0.0 | 10.4 | 0.00 | 0.00 | 0.00 | 58 | 1010.5 |
| 20260504013056 | 52 | 238 | 2.6 | 13.9 | 0.00 | 0.00 | 0.00 | 57 | 1010.5 |
| 20260504012555 | 52 | 273 | 1.7 | 17.4 | 0.00 | 0.00 | 0.00 | 57 | 1010.4 |
| 20260504012052 | 52 | 263 | 7.0 | 17.4 | 0.00 | 0.00 | 0.00 | 56 | 1010.5 |
| 20260504011553 | 52 | 286 | 4.3 | 18.2 | 0.00 | 0.00 | 0.00 | 54 | 1010.4 |
| 20260504011052 | 52 | 273 | 6.1 | 18.2 | 0.00 | 0.00 | 0.00 | 54 | 1010.4 |
| 20260504010552 | 52 | 247 | 3.5 | 13.9 | 0.00 | 0.00 | 0.00 | 55 | 1010.4 |
| 20260504010058 | 51 | 245 | 0.9 | 11.3 | 0.00 | 0.00 | 0.00 | 56 | 1010.3 |
| 20260504005554 | 51 | 273 | 0.0 | 10.4 | 0.00 | 0.00 | 0.00 | 57 | 1010.1 |
| 20260504005052 | 50 | 217 | 2.6 | 10.4 | 0.00 | 0.00 | 0.00 | 57 | 1010.1 |
| 20260504004552 | 50 | 234 | 0.0 | 0.9 | 0.00 | 0.00 | 0.00 | 58 | 1010.0 |
| 20260504004051 | 50 | 277 | 0.0 | 0.9 | 0.00 | 0.00 | 0.00 | 58 | 1010.0 |
| 20260504003551 | 50 | 230 | 0.0 | 0.0 | 0.00 | 0.00 | 0.00 | 58 | 1010.0 |
| 20260504003051 | 50 | 164 | 0.0 | 0.0 | 0.00 | 0.00 | 0.00 | 58 | 1009.9 |
| 20260504002551 | 50 | 251 | 0.0 | 0.0 | 0.00 | 0.00 | 0.00 | 58 | 1009.9 |
| 20260504002051 | 50 | 226 | 0.0 | 0.0 | 0.00 | 0.00 | 0.00 | 58 | 1009.9 |
| 20260504001557 | 50 | 240 | 0.0 | 0.9 | 0.00 | 0.00 | 0.00 | 58 | 1009.8 |
| 20260504001051 | 50 | 248 | 0.0 | 5.2 | 0.00 | 0.00 | 0.00 | 57 | 1009.8 |
| 20260504000551 | 50 | 166 | 0.0 | 5.2 | 0.00 | 0.00 | 0.00 | 57 | 1009.8 |
| 20260504000057 | 50 | 197 | 0.0 | 6.1 | 0.00 | 0.00 | 0.00 | 56 | 1009.8 |
| 20260503235550 | 51 | 256 | 0.0 | 11.3 | 0.00 | 0.00 | 0.00 | 56 | 1009.9 |
| 20260503235049 | 51 | 255 | 4.3 | 11.3 | 0.00 | 0.00 | 0.00 | 55 | 1010.0 |
| 20260503234550 | 51 | 273 | 0.9 | 14.8 | 0.00 | 0.00 | 0.00 | 55 | 1010.1 |
| 20260503234049 | 51 | 249 | 1.7 | 13.9 | 0.00 | 0.00 | 0.00 | 54 | 1010.3 |
| 20260503233549 | 51 | 306 | 5.2 | 17.4 | 0.00 | 0.00 | 0.00 | 52 | 1010.3 |
| 20260503233051 | 51 | 325 | 0.0 | 17.4 | 0.00 | 0.00 | 0.00 | 52 | 1010.2 |
| 20260503232552 | 51 | 247 | 4.3 | 11.3 | 0.00 | 0.00 | 0.00 | 51 | 1010.1 |
| 20260503232048 | 51 | 301 | 1.7 | 10.4 | 0.00 | 0.00 | 0.00 | 51 | 1010.0 |